Home   Weather   Stevenson   Past weeks
Flag for USA

Past Weather in Stevenson, Washington, USA — Yesterday and Last 2 Weeks

Now
68 °F

Overcast.


Feels Like: 68 °F
Forecast: 68 / 62 °F
Wind: 5 mph from North

Location: Portland-Troutdale Airport

Current Time: Jul 16, 2019 at 11:49:59 pm

Latest Report: Jul 16, 2019 at 10:53 pm


Visibility: 10 mi

Pressure: 29.98 "Hg

Humidity: 65%

Dew Point: 56 °F

Location of StevensonLocation

Past Weather in Stevenson — Graph

°F

Stevenson Temperature Yesterday

Maximum temperature yesterday: 77 °F (at 5:53 pm)
Minimum temperature yesterday: 64 °F (at 5:53 am)
Average temperature yesterday: 70 °F

High & Low Weather Summary for the Past Weeks

 TemperatureHumidityPressure
High84 °F (Jul 14, 4:53 pm)93% (Jul 6, 8:17 am)30.16 "Hg (Jul 6, 8:17 am)
Low57 °F (Jul 8, 3:53 am)27% (Jul 14, 6:53 pm)29.93 "Hg (Jul 8, 6:53 pm)
Average67 °F68%30.05 "Hg
* Reported Jul 1 9:53 pm — Jul 16 9:53 pm, Stevenson. Weather by CustomWeather, © 2019

Note: Actual official high and low records may vary slightly from our data, if they occured in-between our weather recording intervals... More about our weather records

Advertising

Stevenson Weather History for the Previous 24 Hours

Scroll right to see more
 ConditionsComfort  
Time TempWeatherWind HumidityBarometerVisibility
9:53 pm
Tue, Jul 16
69 °FPassing clouds.3 mph66%29.97 "Hg10 mi
8:53 pm71 °FPartly sunny.7 mph63%29.96 "Hg10 mi
7:53 pm73 °FPassing clouds.9 mph59%29.96 "Hg10 mi
6:53 pm78 °FMostly cloudy.6 mph48%29.94 "Hg10 mi
5:53 pm79 °FOvercast.3 mph42%29.94 "Hg10 mi
4:53 pm80 °FPassing clouds.No wind39%29.93 "Hg10 mi
3:53 pm81 °FSunny.7 mph39%29.95 "Hg10 mi
2:53 pm81 °FSunny.5 mph41%29.97 "Hg10 mi
1:53 pm78 °FPassing clouds.7 mph46%29.99 "Hg10 mi
12:53 pm76 °FPassing clouds.6 mph54%30.01 "Hg10 mi
11:53 am72 °FOvercast.3 mph61%30.02 "Hg10 mi
10:53 am71 °FPartly sunny.6 mph66%30.02 "Hg10 mi
9:53 am69 °FOvercast.6 mph70%30.03 "Hg10 mi
9:30 am68 °FCloudy.3 mph73%30.03 "Hg10 mi
9:10 am68 °FMostly cloudy.3 mph73%30.03 "Hg10 mi
9:00 am69 °FMore clouds than sun.6 mph70%30.04 "Hg10 mi
8:41 am68 °FBroken clouds.6 mph73%30.03 "Hg10 mi
8:07 am67 °FMostly cloudy.5 mph76%30.04 "Hg10 mi
6:53 am66 °FOvercast.3 mph78%30.03 "Hg10 mi
6:35 am66 °FOvercast.3 mph78%30.03 "Hg10 mi
6:21 am66 °FCloudy.3 mph78%30.02 "Hg10 mi
5:53 am66 °FOvercast.3 mph78%30.02 "Hg10 mi
5:20 am66 °FOvercast.No wind81%30.01 "Hg10 mi
5:04 am66 °FOvercast.5 mph81%30.01 "Hg10 mi
4:53 am66 °FOvercast.5 mph81%30.01 "Hg10 mi
3:53 am66 °FOvercast.5 mph81%30.01 "Hg10 mi
3:08 am67 °FMostly cloudy.3 mph79%30.01 "Hg10 mi
2:12 am67 °FMostly cloudy.No wind79%30.02 "Hg10 mi
1:53 am67 °FMostly cloudy.3 mph81%30.02 "Hg10 mi
12:53 am68 °FMostly cloudy.No wind78%30.03 "Hg10 mi
11:53 pm
Mon, Jul 15
68 °FPassing clouds.5 mph78%30.03 "Hg10 mi
Weather by CustomWeather, © 2019

See weather overview